Time,TemperatureF,DewpointF,PressureIn,WindDirection,WindDirectionDegrees,WindSpeedMPH,WindSpeedGustMPH,Humidity,HourlyPrecipIn,Conditions,Clouds,dailyrainin,SoftwareType,DateUTC
2013-09-05 00:01:00,64.0,62.8,30.14,SW,223,0.0,0.0,96,0.00,RA,FEW,0.00,WeatherDisplay:10.37,2013-09-05 05:01:00,
2013-09-05 00:06:00,64.0,62.8,30.14,SW,223,0.0,0.0,96,0.00,RA,FEW,0.00,WeatherDisplay:10.37,2013-09-05 05:06:00,
2013-09-05 00:11:00,64.0,62.8,30.13,SW,223,0.0,0.0,96,0.00,CLR,FEW,0.00,WeatherDisplay:10.37,2013-09-05 05:11:00,
2013-09-05 00:16:00,63.9,62.7,30.13,SW,223,0.0,0.0,96,0.00,CLR,FEW,0.00,WeatherDisplay:10.37,2013-09-05 05:16:00,
2013-09-05 00:22:00,63.8,62.6,30.13,SW,223,0.0,0.0,96,0.00,CLR,FEW,0.00,WeatherDisplay:10.37,2013-09-05 05:22:00,
2013-09-05 00:27:00,63.6,62.4,30.14,SW,223,0.0,0.0,96,0.00,CLR,FEW,0.00,WeatherDisplay:10.37,2013-09-05 05:27:00,
2013-09-05 00:32:00,63.4,62.2,30.14,SW,223,0.0,0.0,96,0.00,CLR,FEW,0.00,WeatherDisplay:10.37,2013-09-05 05:32:00,
2013-09-05 00:37:00,63.2,62.0,30.14,SW,223,0.0,0.0,96,0.00,CLR,FEW,0.00,WeatherDisplay:10.37,2013-09-05 05:37:00,
2013-09-05 00:42:00,63.1,61.9,30.14,SW,223,0.0,0.0,96,0.00,CLR,FEW,0.00,WeatherDisplay:10.37,2013-09-05 05:42:00,
2013-09-05 00:47:00,63.3,62.4,30.14,SW,223,0.0,0.0,97,0.00,CLR,FEW,0.00,WeatherDisplay:10.37,2013-09-05 05:47:00,
2013-09-05 00:52:00,63.3,62.4,30.14,SW,223,0.0,0.0,97,0.00,CLR,FEW,0.00,WeatherDisplay:10.37,2013-09-05 05:52:00,
2013-09-05 00:57:00,63.3,62.1,30.14,SW,223,0.0,0.0,96,0.00,CLR,FEW,0.00,WeatherDisplay:10.37,2013-09-05 05:57:00,
2013-09-05 01:02:00,63.2,62.0,30.14,SW,223,0.0,0.0,96,0.00,CLR,FEW,0.00,WeatherDisplay:10.37,2013-09-05 06:02:00,
2013-09-05 01:07:00,63.2,62.3,30.13,SW,223,0.0,0.0,97,0.00,CLR,FEW,0.00,WeatherDisplay:10.37,2013-09-05 06:07:00,
2013-09-05 01:12:00,63.2,62.3,30.13,SW,223,0.0,0.0,97,0.00,CLR,FEW,0.00,WeatherDisplay:10.37,2013-09-05 06:12:00,
2013-09-05 01:17:00,63.1,62.2,30.13,SW,223,0.0,0.0,97,0.00,CLR,FEW,0.00,WeatherDisplay:10.37,2013-09-05 06:17:00,
2013-09-05 01:22:00,63.1,62.2,30.13,SW,223,0.0,0.0,97,0.00,CLR,FEW,0.00,WeatherDisplay:10.37,2013-09-05 06:22:00,
2013-09-05 01:27:00,63.0,62.1,30.13,SW,223,0.0,0.0,97,0.00,CLR,FEW,0.00,WeatherDisplay:10.37,2013-09-05 06:27:00,
2013-09-05 01:32:00,63.0,62.1,30.13,SW,223,0.0,0.0,97,0.00,CLR,FEW,0.00,WeatherDisplay:10.37,2013-09-05 06:32:00,
2013-09-05 01:37:00,62.9,62.0,30.13,SW,223,0.0,0.0,97,0.00,CLR,FEW,0.00,WeatherDisplay:10.37,2013-09-05 06:37:00,
2013-09-05 01:42:00,62.9,62.0,30.13,SW,223,0.0,0.0,97,0.00,CLR,FEW,0.00,WeatherDisplay:10.37,2013-09-05 06:42:00,
2013-09-05 01:47:00,62.8,61.9,30.13,SW,223,0.0,0.0,97,0.00,CLR,FEW,0.00,WeatherDisplay:10.37,2013-09-05 06:47:00,
2013-09-05 01:52:00,62.8,61.9,30.13,SW,223,0.0,0.0,97,0.00,CLR,FEW,0.00,WeatherDisplay:10.37,2013-09-05 06:52:00,
2013-09-05 01:57:00,62.7,61.8,30.13,SW,223,0.0,0.0,97,0.00,CLR,FEW,0.00,WeatherDisplay:10.37,2013-09-05 06:57:00,
2013-09-05 02:02:00,62.6,61.7,30.13,SW,223,0.0,0.0,97,0.00,CLR,FEW,0.00,WeatherDisplay:10.37,2013-09-05 07:02:00,
2013-09-05 02:07:00,62.5,61.6,30.12,SW,223,0.0,0.0,97,0.00,CLR,FEW,0.00,WeatherDisplay:10.37,2013-09-05 07:07:00,
2013-09-05 02:12:00,62.4,61.2,30.12,SW,223,0.0,0.0,96,0.00,CLR,FEW,0.00,WeatherDisplay:10.37,2013-09-05 07:12:00,
2013-09-05 02:17:00,62.2,61.0,30.12,SW,223,0.0,0.0,96,0.00,CLR,FEW,0.00,WeatherDisplay:10.37,2013-09-05 07:17:00,
2013-09-05 02:22:00,62.0,60.8,30.12,SW,223,0.0,0.0,96,0.00,CLR,FEW,0.00,WeatherDisplay:10.37,2013-09-05 07:22:00,
2013-09-05 02:27:00,61.9,61.0,30.12,SW,223,0.0,0.0,97,0.00,CLR,FEW,0.00,WeatherDisplay:10.37,2013-09-05 07:27:00,
2013-09-05 02:32:00,61.9,61.0,30.12,SW,223,0.0,0.0,97,0.00,CLR,FEW,0.00,WeatherDisplay:10.37,2013-09-05 07:32:00,
2013-09-05 02:37:00,62.0,61.1,30.12,SW,223,0.0,0.0,97,0.00,CLR,FEW,0.00,WeatherDisplay:10.37,2013-09-05 07:37:00,
2013-09-05 02:42:00,62.2,61.6,30.12,SW,223,0.0,0.0,98,0.00,CLR,FEW,0.00,WeatherDisplay:10.37,2013-09-05 07:42:00,
2013-09-05 02:47:00,62.3,61.7,30.12,SW,223,0.0,0.0,98,0.00,CLR,FEW,0.00,WeatherDisplay:10.37,2013-09-05 07:47:00,
2013-09-05 02:52:00,62.4,61.8,30.12,SW,223,0.0,0.0,98,0.00,CLR,FEW,0.00,WeatherDisplay:10.37,2013-09-05 07:52:00,
2013-09-05 02:57:00,62.4,61.8,30.12,SW,223,0.0,0.0,98,0.00,CLR,FEW,0.00,WeatherDisplay:10.37,2013-09-05 07:57:00,
2013-09-05 03:02:00,62.5,61.9,30.12,SW,223,0.0,0.0,98,0.00,CLR,FEW,0.00,WeatherDisplay:10.37,2013-09-05 08:02:00,
2013-09-05 03:07:00,62.6,62.0,30.12,SW,223,0.0,0.0,98,0.00,CLR,FEW,0.00,WeatherDisplay:10.37,2013-09-05 08:07:00,
2013-09-05 03:12:00,62.6,62.0,30.12,SW,223,0.0,0.0,98,0.01,RA,FEW,0.01,WeatherDisplay:10.37,2013-09-05 08:12:00,
2013-09-05 03:17:00,62.8,62.2,30.12,SW,223,0.0,0.0,98,0.01,RA,FEW,0.01,WeatherDisplay:10.37,2013-09-05 08:17:00,
2013-09-05 03:22:00,62.7,62.1,30.12,SW,223,0.0,0.0,98,0.01,CLR,FEW,0.01,WeatherDisplay:10.37,2013-09-05 08:22:00,
2013-09-05 03:27:00,62.7,62.1,30.12,SW,223,0.0,0.0,98,0.01,CLR,FEW,0.01,WeatherDisplay:10.37,2013-09-05 08:27:00,
2013-09-05 03:32:00,62.7,62.1,30.12,SW,223,0.0,0.0,98,0.01,CLR,FEW,0.01,WeatherDisplay:10.37,2013-09-05 08:32:00,
2013-09-05 03:37:00,62.7,62.1,30.12,SW,223,0.0,0.0,98,0.01,CLR,FEW,0.01,WeatherDisplay:10.37,2013-09-05 08:37:00,
2013-09-05 03:42:00,62.6,62.0,30.12,SW,223,0.0,0.0,98,0.01,CLR,FEW,0.01,WeatherDisplay:10.37,2013-09-05 08:42:00,
2013-09-05 03:47:00,62.5,61.6,30.12,SW,223,0.0,0.0,97,0.01,CLR,FEW,0.01,WeatherDisplay:10.37,2013-09-05 08:47:00,
2013-09-05 03:52:00,62.4,61.8,30.12,SW,223,0.0,0.0,98,0.01,CLR,FEW,0.01,WeatherDisplay:10.37,2013-09-05 08:52:00,
2013-09-05 03:57:00,62.3,61.7,30.12,SW,223,0.0,0.0,98,0.01,CLR,FEW,0.01,WeatherDisplay:10.37,2013-09-05 08:57:00,
2013-09-05 04:02:00,62.0,61.1,30.12,SW,223,0.0,0.0,97,0.01,CLR,FEW,0.01,WeatherDisplay:10.37,2013-09-05 09:02:00,
2013-09-05 04:07:00,61.8,60.9,30.12,SW,223,0.0,0.0,97,0.01,CLR,FEW,0.01,WeatherDisplay:10.37,2013-09-05 09:07:00,
2013-09-05 04:12:00,61.7,60.8,30.12,SW,223,0.0,0.0,97,0.00,CLR,FEW,0.01,WeatherDisplay:10.37,2013-09-05 09:12:00,
2013-09-05 04:17:00,61.5,60.6,30.12,SW,223,0.0,0.0,97,0.00,CLR,FEW,0.01,WeatherDisplay:10.37,2013-09-05 09:17:00,
2013-09-05 04:22:00,61.3,60.4,30.12,SW,223,0.0,0.0,97,0.00,CLR,FEW,0.01,WeatherDisplay:10.37,2013-09-05 09:22:00,
2013-09-05 04:27:00,61.1,60.2,30.12,SW,223,0.0,0.0,97,0.00,CLR,FEW,0.01,WeatherDisplay:10.37,2013-09-05 09:27:00,
2013-09-05 04:32:00,61.0,60.1,30.12,SW,223,0.0,0.0,97,0.00,CLR,FEW,0.01,WeatherDisplay:10.37,2013-09-05 09:32:00,
2013-09-05 04:37:00,60.9,60.0,30.12,SW,223,0.0,0.0,97,0.00,CLR,FEW,0.01,WeatherDisplay:10.37,2013-09-05 09:37:00,
2013-09-05 04:42:00,60.7,59.8,30.12,SW,223,0.0,0.0,97,0.00,CLR,FEW,0.01,WeatherDisplay:10.37,2013-09-05 09:42:00,
2013-09-05 04:47:00,60.6,59.7,30.12,SW,223,0.0,0.0,97,0.00,CLR,FEW,0.01,WeatherDisplay:10.37,2013-09-05 09:47:00,
2013-09-05 04:52:00,60.5,59.6,30.13,SW,223,0.0,0.0,97,0.00,CLR,FEW,0.01,WeatherDisplay:10.37,2013-09-05 09:52:00,
2013-09-05 04:57:00,60.3,59.4,30.13,SW,223,0.0,0.0,97,0.00,CLR,FEW,0.01,WeatherDisplay:10.37,2013-09-05 09:57:00,
2013-09-05 05:02:00,60.2,59.3,30.13,SW,223,0.0,0.0,97,0.00,CLR,FEW,0.01,WeatherDisplay:10.37,2013-09-05 10:02:00,
2013-09-05 05:07:00,60.2,59.3,30.13,SW,223,0.0,0.0,97,0.00,CLR,FEW,0.01,WeatherDisplay:10.37,2013-09-05 10:07:00,
2013-09-05 05:12:00,60.2,59.6,30.13,SW,223,0.0,0.0,98,0.00,CLR,FEW,0.01,WeatherDisplay:10.37,2013-09-05 10:12:00,
2013-09-05 05:17:00,60.3,59.7,30.13,SW,223,0.0,0.0,98,0.00,CLR,FEW,0.01,WeatherDisplay:10.37,2013-09-05 10:17:00,
2013-09-05 05:22:00,60.3,59.7,30.13,SW,223,0.0,0.0,98,0.00,CLR,FEW,0.01,WeatherDisplay:10.37,2013-09-05 10:22:00,
2013-09-05 05:27:00,60.3,59.7,30.13,SW,223,0.0,0.0,98,0.00,CLR,FEW,0.01,WeatherDisplay:10.37,2013-09-05 10:27:00,
2013-09-05 05:32:00,60.3,59.7,30.14,SW,223,0.0,0.0,98,0.00,CLR,FEW,0.01,WeatherDisplay:10.37,2013-09-05 10:32:00,
2013-09-05 05:37:00,60.3,59.7,30.14,SW,223,0.0,0.0,98,0.00,CLR,FEW,0.01,WeatherDisplay:10.37,2013-09-05 10:37:00,
2013-09-05 05:42:00,60.3,59.7,30.14,SW,223,0.0,0.0,98,0.00,CLR,FEW,0.01,WeatherDisplay:10.37,2013-09-05 10:42:00,
2013-09-05 05:47:00,60.3,59.7,30.14,SW,223,0.0,0.0,98,0.00,CLR,FEW,0.01,WeatherDisplay:10.37,2013-09-05 10:47:00,
2013-09-05 05:52:00,60.3,59.7,30.14,SW,223,0.0,0.0,98,0.00,CLR,FEW,0.01,WeatherDisplay:10.37,2013-09-05 10:52:00,
2013-09-05 05:57:00,60.3,59.7,30.15,SW,223,0.0,0.0,98,0.00,CLR,FEW,0.01,WeatherDisplay:10.37,2013-09-05 10:57:00,
2013-09-05 06:02:00,60.3,59.7,30.15,SW,223,0.0,0.0,98,0.00,CLR,FEW,0.01,WeatherDisplay:10.37,2013-09-05 11:02:00,
2013-09-05 06:08:00,60.2,59.6,30.15,SW,223,0.0,0.0,98,0.00,CLR,FEW,0.01,WeatherDisplay:10.37,2013-09-05 11:08:00,
2013-09-05 06:13:00,60.2,59.6,30.15,SW,223,0.0,0.0,98,0.00,CLR,FEW,0.01,WeatherDisplay:10.37,2013-09-05 11:13:00,
2013-09-05 06:18:00,60.2,59.6,30.15,SW,223,0.0,0.0,98,0.00,CLR,FEW,0.01,WeatherDisplay:10.37,2013-09-05 11:18:00,
2013-09-05 06:23:00,60.2,59.6,30.15,SW,223,0.0,0.0,98,0.00,CLR,FEW,0.01,WeatherDisplay:10.37,2013-09-05 11:23:00,
2013-09-05 06:28:00,60.1,59.5,30.15,SW,223,0.0,0.0,98,0.00,CLR,FEW,0.01,WeatherDisplay:10.37,2013-09-05 11:28:00,
2013-09-05 06:33:00,60.0,59.4,30.15,SW,223,0.0,0.0,98,0.00,CLR,FEW,0.01,WeatherDisplay:10.37,2013-09-05 11:33:00,
2013-09-05 06:38:00,59.9,59.3,30.16,SW,223,0.0,0.0,98,0.00,CLR,FEW,0.01,WeatherDisplay:10.37,2013-09-05 11:38:00,
2013-09-05 06:43:00,59.8,59.2,30.16,SW,223,0.0,0.0,98,0.00,CLR,FEW,0.01,WeatherDisplay:10.37,2013-09-05 11:43:00,
2013-09-05 06:48:00,59.7,59.1,30.16,SW,223,0.0,0.0,98,0.00,CLR,FEW,0.01,WeatherDisplay:10.37,2013-09-05 11:48:00,
2013-09-05 06:53:00,59.8,59.2,30.16,SW,223,0.0,0.0,98,0.00,CLR,FEW,0.01,WeatherDisplay:10.37,2013-09-05 11:53:00,
2013-09-05 06:58:00,59.7,59.1,30.16,SW,223,0.0,0.0,98,0.00,CLR,FEW,0.01,WeatherDisplay:10.37,2013-09-05 11:58:00,
2013-09-05 07:03:00,59.8,59.2,30.17,SW,223,0.0,0.0,98,0.00,CLR,FEW,0.01,WeatherDisplay:10.37,2013-09-05 12:03:00,
2013-09-05 07:08:00,60.0,59.4,30.17,SW,223,0.0,0.0,98,0.00,CLR,FEW,0.01,WeatherDisplay:10.37,2013-09-05 12:08:00,
2013-09-05 07:13:00,60.2,59.6,30.17,SW,223,0.0,0.0,98,0.00,CLR,FEW,0.01,WeatherDisplay:10.37,2013-09-05 12:13:00,
2013-09-05 07:18:00,60.4,59.8,30.17,SW,223,0.0,0.0,98,0.00,CLR,FEW,0.01,WeatherDisplay:10.37,2013-09-05 12:18:00,
2013-09-05 07:23:00,60.7,60.1,30.17,SW,223,0.0,0.0,98,0.00,CLR,FEW,0.01,WeatherDisplay:10.37,2013-09-05 12:23:00,
2013-09-05 07:28:00,60.8,60.2,30.18,SW,223,0.0,0.0,98,0.00,CLR,FEW,0.01,WeatherDisplay:10.37,2013-09-05 12:28:00,
2013-09-05 07:33:00,60.9,60.3,30.18,SW,223,0.0,0.0,98,0.00,CLR,FEW,0.01,WeatherDisplay:10.37,2013-09-05 12:33:00,
2013-09-05 07:38:00,61.1,60.5,30.18,SW,223,0.0,0.0,98,0.00,CLR,FEW,0.01,WeatherDisplay:10.37,2013-09-05 12:38:00,
2013-09-05 07:43:00,61.3,60.7,30.18,SW,223,0.0,0.0,98,0.00,CLR,FEW,0.01,WeatherDisplay:10.37,2013-09-05 12:43:00,
2013-09-05 07:48:00,61.6,61.3,30.18,SW,223,0.0,0.0,99,0.00,CLR,FEW,0.01,WeatherDisplay:10.37,2013-09-05 12:48:00,
2013-09-05 07:53:00,62.0,61.4,30.18,SW,223,0.0,0.0,98,0.00,CLR,FEW,0.01,WeatherDisplay:10.37,2013-09-05 12:53:00,
2013-09-05 07:58:00,62.3,62.0,30.18,SW,223,0.0,0.0,99,0.00,CLR,FEW,0.01,WeatherDisplay:10.37,2013-09-05 12:58:00,
2013-09-05 08:03:00,62.6,62.0,30.18,SW,223,0.0,0.0,98,0.00,CLR,FEW,0.01,WeatherDisplay:10.37,2013-09-05 13:03:00,
2013-09-05 08:08:00,63.1,62.8,30.18,SW,223,0.0,0.0,99,0.00,CLR,FEW,0.01,WeatherDisplay:10.37,2013-09-05 13:08:00,
2013-09-05 08:13:00,63.7,63.4,30.18,SW,223,0.0,0.0,99,0.00,CLR,FEW,0.01,WeatherDisplay:10.37,2013-09-05 13:13:00,
2013-09-05 08:18:00,64.2,63.9,30.18,SW,223,0.0,0.0,99,0.00,CLR,FEW,0.01,WeatherDisplay:10.37,2013-09-05 13:18:00,
2013-09-05 08:23:00,64.7,64.4,30.18,SW,223,0.0,0.0,99,0.00,CLR,FEW,0.01,WeatherDisplay:10.37,2013-09-05 13:23:00,
2013-09-05 08:28:00,65.1,64.5,30.18,SW,223,0.0,0.0,98,0.00,CLR,FEW,0.01,WeatherDisplay:10.37,2013-09-05 13:28:00,
2013-09-05 08:33:00,65.6,64.7,30.18,SW,223,0.0,0.0,97,0.00,CLR,FEW,0.01,WeatherDisplay:10.37,2013-09-05 13:33:00,
2013-09-05 08:38:00,66.3,64.8,30.18,SW,223,0.0,0.0,95,0.00,CLR,FEW,0.01,WeatherDisplay:10.37,2013-09-05 13:38:00,
2013-09-05 08:43:00,66.9,65.1,30.18,ESE,102,0.0,0.0,94,0.00,CLR,FEW,0.01,WeatherDisplay:10.37,2013-09-05 13:43:00,
2013-09-05 08:48:00,67.5,65.4,30.18,ESE,102,0.0,0.0,93,0.00,CLR,FEW,0.01,WeatherDisplay:10.37,2013-09-05 13:48:00,
2013-09-05 08:53:00,68.1,65.7,30.18,East,101,0.0,0.0,92,0.00,CLR,FEW,0.01,WeatherDisplay:10.37,2013-09-05 13:53:00,
2013-09-05 08:58:00,69.0,65.9,30.18,East,101,0.0,0.0,90,0.00,CLR,FEW,0.01,WeatherDisplay:10.37,2013-09-05 13:58:00,
2013-09-05 09:03:00,69.9,66.5,30.18,East,101,0.0,0.0,89,0.00,CLR,FEW,0.01,WeatherDisplay:10.37,2013-09-05 14:03:00,
2013-09-05 09:08:00,70.6,66.2,30.18,East,81,0.0,0.0,86,0.00,CLR,FEW,0.01,WeatherDisplay:10.37,2013-09-05 14:08:00,
2013-09-05 09:13:00,71.0,66.9,30.18,East,81,0.0,0.0,87,0.00,CLR,FEW,0.01,WeatherDisplay:10.37,2013-09-05 14:13:00,
2013-09-05 09:18:00,71.5,67.1,30.18,East,81,0.0,0.0,86,0.00,CLR,FEW,0.01,WeatherDisplay:10.37,2013-09-05 14:18:00,
2013-09-05 09:23:00,72.1,67.0,30.18,ESE,116,0.0,0.0,84,0.00,CLR,FEW,0.01,WeatherDisplay:10.37,2013-09-05 14:23:00,
2013-09-05 09:28:00,72.7,67.2,30.18,SE,125,0.0,0.0,83,0.00,CLR,FEW,0.01,WeatherDisplay:10.37,2013-09-05 14:28:00,
2013-09-05 09:33:00,73.4,68.6,30.18,WSW,237,0.0,0.0,85,0.00,CLR,FEW,0.01,WeatherDisplay:10.37,2013-09-05 14:33:00,
2013-09-05 09:38:00,73.9,67.3,30.18,ENE,72,0.0,0.0,80,0.00,CLR,FEW,0.01,WeatherDisplay:10.37,2013-09-05 14:38:00,
2013-09-05 09:43:00,74.1,66.8,30.18,East,87,0.0,0.0,78,0.00,CLR,FEW,0.01,WeatherDisplay:10.37,2013-09-05 14:43:00,
2013-09-05 09:48:00,74.4,67.8,30.18,East,94,0.0,0.0,80,0.00,CLR,FEW,0.01,WeatherDisplay:10.37,2013-09-05 14:48:00,
2013-09-05 09:53:00,74.9,67.9,30.18,East,94,0.0,0.0,79,0.00,CLR,FEW,0.01,WeatherDisplay:10.37,2013-09-05 14:53:00,
2013-09-05 09:58:00,74.9,67.2,30.18,North,360,0.0,0.0,77,0.00,CLR,FEW,0.01,WeatherDisplay:10.37,2013-09-05 14:58:00,
2013-09-05 10:03:00,75.1,67.8,30.18,NNW,344,0.0,0.0,78,0.00,CLR,FEW,0.01,WeatherDisplay:10.37,2013-09-05 15:03:00,
2013-09-05 10:08:00,75.1,67.4,30.18,ENE,59,0.0,0.0,77,0.00,CLR,FEW,0.01,WeatherDisplay:10.37,2013-09-05 15:08:00,
2013-09-05 10:13:00,75.4,67.7,30.18,NNE,31,0.0,0.0,77,0.00,CLR,FEW,0.01,WeatherDisplay:10.37,2013-09-05 15:13:00,
2013-09-05 10:18:00,75.7,67.6,30.18,ENE,58,0.0,0.0,76,0.00,CLR,FEW,0.01,WeatherDisplay:10.37,2013-09-05 15:18:00,
2013-09-05 10:23:00,75.8,68.1,30.18,NW,323,0.0,0.0,77,0.00,CLR,FEW,0.01,WeatherDisplay:10.37,2013-09-05 15:23:00,
2013-09-05 10:28:00,75.9,67.8,30.18,NNE,23,0.0,0.0,76,0.00,CLR,FEW,0.01,WeatherDisplay:10.37,2013-09-05 15:28:00,
2013-09-05 10:33:00,76.1,67.6,30.19,ENE,57,0.0,0.0,75,0.00,CLR,FEW,0.01,WeatherDisplay:10.37,2013-09-05 15:33:00,
2013-09-05 10:38:00,76.3,68.2,30.19,NE,55,0.0,0.0,76,0.00,CLR,FEW,0.01,WeatherDisplay:10.37,2013-09-05 15:38:00,
2013-09-05 10:43:00,76.6,67.7,30.19,ENE,60,0.0,0.0,74,0.00,CLR,FEW,0.01,WeatherDisplay:10.37,2013-09-05 15:43:00,
2013-09-05 10:48:00,77.0,67.7,30.19,NE,44,0.0,0.0,73,0.00,CLR,FEW,0.01,WeatherDisplay:10.37,2013-09-05 15:48:00,
2013-09-05 10:53:00,77.5,67.8,30.18,ESE,111,0.0,0.0,72,0.00,CLR,FEW,0.01,WeatherDisplay:10.37,2013-09-05 15:53:00,
2013-09-05 10:58:00,77.5,67.4,30.18,South,169,0.0,0.0,71,0.00,CLR,FEW,0.01,WeatherDisplay:10.37,2013-09-05 15:58:00,
2013-09-05 11:03:00,77.8,68.8,30.18,East,101,0.0,0.1,74,0.00,CLR,FEW,0.01,WeatherDisplay:10.37,2013-09-05 16:03:00,
2013-09-05 11:08:00,78.0,68.2,30.18,North,11,0.0,0.0,72,0.00,CLR,FEW,0.01,WeatherDisplay:10.37,2013-09-05 16:08:00,
2013-09-05 11:13:00,78.3,68.9,30.18,NNE,15,0.0,0.0,73,0.00,CLR,FEW,0.01,WeatherDisplay:10.37,2013-09-05 16:13:00,
2013-09-05 11:18:00,78.2,67.6,30.18,NW,322,0.0,0.0,70,0.00,CLR,FEW,0.01,WeatherDisplay:10.37,2013-09-05 16:18:00,
2013-09-05 11:23:00,78.2,67.6,30.19,NNW,330,0.0,0.0,70,0.00,CLR,FEW,0.01,WeatherDisplay:10.37,2013-09-05 16:23:00,
2013-09-05 11:28:00,78.2,68.4,30.19,NE,55,0.0,0.0,72,0.00,CLR,FEW,0.01,WeatherDisplay:10.37,2013-09-05 16:28:00,
2013-09-05 11:33:00,78.5,68.7,30.19,ENE,66,0.0,0.0,72,0.00,CLR,FEW,0.01,WeatherDisplay:10.37,2013-09-05 16:33:00,
2013-09-05 11:38:00,79.0,68.4,30.19,East,94,0.0,0.0,70,0.00,CLR,FEW,0.01,WeatherDisplay:10.37,2013-09-05 16:38:00,
2013-09-05 11:44:00,79.2,67.7,30.18,NE,51,0.0,0.0,68,0.00,CLR,FEW,0.01,WeatherDisplay:10.37,2013-09-05 16:44:00,
2013-09-05 11:49:00,79.3,69.5,30.18,NE,46,0.0,0.0,72,0.00,CLR,FEW,0.01,WeatherDisplay:10.37,2013-09-05 16:49:00,
2013-09-05 11:54:00,79.3,67.8,30.18,ENE,75,0.0,0.0,68,0.00,CLR,FEW,0.01,WeatherDisplay:10.37,2013-09-05 16:54:00,
2013-09-05 11:59:00,79.3,67.4,30.18,North,360,0.0,0.0,67,0.00,CLR,FEW,0.01,WeatherDisplay:10.37,2013-09-05 16:59:00,
2013-09-05 12:04:00,79.4,67.0,30.18,ENE,63,0.0,0.0,66,0.00,CLR,FEW,0.01,WeatherDisplay:10.37,2013-09-05 17:04:00,
2013-09-05 12:09:00,79.5,67.1,30.18,ENE,63,0.0,0.0,66,0.00,CLR,FEW,0.01,WeatherDisplay:10.37,2013-09-05 17:09:00,
2013-09-05 12:14:00,79.8,68.3,30.18,NE,34,0.0,0.0,68,0.00,CLR,FEW,0.01,WeatherDisplay:10.37,2013-09-05 17:14:00,
2013-09-05 12:19:00,80.0,67.6,30.18,NNW,346,0.0,0.0,66,0.00,CLR,FEW,0.01,WeatherDisplay:10.37,2013-09-05 17:19:00,
2013-09-05 12:24:00,80.0,69.3,30.18,ESE,111,0.0,0.0,70,0.00,FEW,,0.01,WeatherDisplay:10.37,2013-09-05 17:24:00,
2013-09-05 12:29:00,80.2,68.2,30.18,NNE,28,0.0,0.0,67,0.00,FEW,,0.01,WeatherDisplay:10.37,2013-09-05 17:29:00,
2013-09-05 12:34:00,80.2,67.4,30.18,WSW,252,0.0,0.0,65,0.00,FEW,,0.01,WeatherDisplay:10.37,2013-09-05 17:34:00,
2013-09-05 12:39:00,80.3,67.0,30.17,East,101,0.0,0.0,64,0.00,FEW,,0.01,WeatherDisplay:10.37,2013-09-05 17:39:00,
2013-09-05 12:44:00,80.5,68.1,30.18,North,5,0.0,0.0,66,0.00,FEW,,0.01,WeatherDisplay:10.37,2013-09-05 17:44:00,
2013-09-05 12:49:00,80.9,67.6,30.17,NNE,30,0.0,0.0,64,0.00,FEW,,0.01,WeatherDisplay:10.37,2013-09-05 17:49:00,
2013-09-05 12:54:00,81.0,67.7,30.18,NE,56,0.0,0.0,64,0.00,FEW,,0.01,WeatherDisplay:10.37,2013-09-05 17:54:00,
2013-09-05 12:59:00,81.2,67.4,30.18,West,270,0.0,0.0,63,0.00,FEW,,0.01,WeatherDisplay:10.37,2013-09-05 17:59:00,
2013-09-05 13:04:00,81.2,66.5,30.17,NNE,17,0.0,0.0,61,0.00,FEW,,0.01,WeatherDisplay:10.37,2013-09-05 18:04:00,
2013-09-05 13:09:00,81.1,66.8,30.17,ENE,67,0.0,0.0,62,0.00,FEW,,0.01,WeatherDisplay:10.37,2013-09-05 18:09:00,
2013-09-05 13:14:00,81.1,66.4,30.17,SSE,151,0.0,0.0,61,0.00,FEW,,0.01,WeatherDisplay:10.37,2013-09-05 18:14:00,
2013-09-05 13:19:00,81.4,68.1,30.17,SSE,155,0.0,0.0,64,0.00,FEW,,0.01,WeatherDisplay:10.37,2013-09-05 18:19:00,
2013-09-05 13:24:00,81.6,67.3,30.17,NNE,28,0.0,0.0,62,0.00,CLR,FEW,0.01,WeatherDisplay:10.37,2013-09-05 18:24:00,
2013-09-05 13:29:00,81.7,66.5,30.17,North,350,0.0,0.0,60,0.00,CLR,FEW,0.01,WeatherDisplay:10.37,2013-09-05 18:29:00,
2013-09-05 13:34:00,81.7,67.4,30.16,NE,38,0.0,0.0,62,0.00,CLR,FEW,0.01,WeatherDisplay:10.37,2013-09-05 18:34:00,
2013-09-05 13:39:00,81.9,69.0,30.16,ESE,103,0.0,0.0,65,0.00,CLR,FEW,0.01,WeatherDisplay:10.37,2013-09-05 18:39:00,
2013-09-05 13:44:00,82.0,67.7,30.16,ESE,111,0.0,0.0,62,0.00,CLR,FEW,0.01,WeatherDisplay:10.37,2013-09-05 18:44:00,
2013-09-05 13:49:00,82.1,68.7,30.16,NNW,341,0.0,0.0,64,0.00,CLR,FEW,0.01,WeatherDisplay:10.37,2013-09-05 18:49:00,
2013-09-05 13:54:00,82.1,69.2,30.16,South,182,0.0,0.0,65,0.00,CLR,FEW,0.01,WeatherDisplay:10.37,2013-09-05 18:54:00,
2013-09-05 13:59:00,82.6,68.3,30.15,NNW,346,0.0,0.0,62,0.00,CLR,FEW,0.01,WeatherDisplay:10.37,2013-09-05 18:59:00,
2013-09-05 14:04:00,82.8,67.5,30.15,East,81,0.0,0.0,60,0.00,CLR,FEW,0.01,WeatherDisplay:10.37,2013-09-05 19:04:00,
2013-09-05 14:09:00,82.7,67.4,30.15,NE,48,0.0,0.0,60,0.00,CLR,FEW,0.01,WeatherDisplay:10.37,2013-09-05 19:09:00,
2013-09-05 14:14:00,82.8,68.4,30.15,NNW,335,0.0,0.0,62,0.00,CLR,FEW,0.01,WeatherDisplay:10.37,2013-09-05 19:14:00,
2013-09-05 14:19:00,82.9,68.1,30.15,NNW,329,0.0,0.0,61,0.00,CLR,FEW,0.01,WeatherDisplay:10.37,2013-09-05 19:19:00,
2013-09-05 14:24:00,83.3,68.9,30.15,NE,49,0.0,0.0,62,0.00,CLR,FEW,0.01,WeatherDisplay:10.37,2013-09-05 19:24:00,
2013-09-05 14:29:00,83.4,68.1,30.15,NE,49,0.0,0.0,60,0.00,CLR,FEW,0.01,WeatherDisplay:10.37,2013-09-05 19:29:00,
2013-09-05 14:34:00,83.1,66.3,30.14,NE,34,0.0,0.0,57,0.00,CLR,FEW,0.01,WeatherDisplay:10.37,2013-09-05 19:34:00,
2013-09-05 14:39:00,82.7,67.9,30.14,East,88,0.0,0.0,61,0.00,CLR,FEW,0.01,WeatherDisplay:10.37,2013-09-05 19:39:00,
2013-09-05 14:44:00,82.8,68.0,30.14,NNE,18,0.0,0.0,61,0.00,CLR,FEW,0.01,WeatherDisplay:10.37,2013-09-05 19:44:00,
2013-09-05 14:49:00,82.9,67.6,30.14,NE,39,0.0,0.0,60,0.00,CLR,FEW,0.01,WeatherDisplay:10.37,2013-09-05 19:49:00,
2013-09-05 14:54:00,83.0,67.2,30.14,NE,46,0.0,0.0,59,0.00,CLR,FEW,0.01,WeatherDisplay:10.37,2013-09-05 19:54:00,
2013-09-05 14:59:00,83.4,67.6,30.14,North,11,0.0,0.0,59,0.00,CLR,FEW,0.01,WeatherDisplay:10.37,2013-09-05 19:59:00,
2013-09-05 15:04:00,83.5,67.7,30.14,ENE,61,0.0,0.0,59,0.00,CLR,FEW,0.01,WeatherDisplay:10.37,2013-09-05 20:04:00,
2013-09-05 15:09:00,83.5,67.2,30.13,NE,53,0.0,0.0,58,0.00,CLR,FEW,0.01,WeatherDisplay:10.37,2013-09-05 20:09:00,
2013-09-05 15:14:00,83.6,69.2,30.13,NW,321,0.0,0.0,62,0.00,CLR,FEW,0.01,WeatherDisplay:10.37,2013-09-05 20:14:00,
2013-09-05 15:19:00,84.0,68.6,30.13,ENE,62,0.0,0.0,60,0.00,CLR,FEW,0.01,WeatherDisplay:10.37,2013-09-05 20:19:00,
2013-09-05 15:24:00,83.9,69.0,30.13,ESE,115,0.0,0.0,61,0.00,CLR,FEW,0.01,WeatherDisplay:10.37,2013-09-05 20:24:00,
2013-09-05 15:29:00,84.0,69.1,30.13,ESE,119,0.0,0.0,61,0.00,CLR,FEW,0.01,WeatherDisplay:10.37,2013-09-05 20:29:00,
2013-09-05 15:34:00,84.4,70.9,30.13,East,90,0.0,0.0,64,0.00,CLR,FEW,0.01,WeatherDisplay:10.37,2013-09-05 20:34:00,
2013-09-05 15:39:00,84.5,68.1,30.13,North,9,0.0,0.0,58,0.00,CLR,FEW,0.01,WeatherDisplay:10.37,2013-09-05 20:39:00,
2013-09-05 15:44:00,84.1,67.2,30.13,NNE,14,0.0,0.0,57,0.00,CLR,FEW,0.01,WeatherDisplay:10.37,2013-09-05 20:44:00,
2013-09-05 15:49:00,83.9,67.5,30.13,NNE,19,0.0,0.0,58,0.00,CLR,FEW,0.01,WeatherDisplay:10.37,2013-09-05 20:49:00,
2013-09-05 15:54:00,84.0,68.1,30.12,North,355,0.0,0.0,59,0.00,CLR,FEW,0.01,WeatherDisplay:10.37,2013-09-05 20:54:00,
2013-09-05 15:59:00,84.1,69.2,30.13,ENE,67,0.0,0.0,61,0.00,CLR,FEW,0.01,WeatherDisplay:10.37,2013-09-05 20:59:00,
2013-09-05 16:04:00,84.1,67.7,30.13,ENE,66,0.0,0.0,58,0.00,CLR,FEW,0.01,WeatherDisplay:10.37,2013-09-05 21:04:00,
2013-09-05 16:09:00,84.1,68.2,30.13,NE,38,0.0,0.0,59,0.00,CLR,FEW,0.01,WeatherDisplay:10.37,2013-09-05 21:09:00,
2013-09-05 16:14:00,84.0,67.6,30.13,NE,49,0.0,0.0,58,0.00,CLR,FEW,0.01,WeatherDisplay:10.37,2013-09-05 21:14:00,
2013-09-05 16:19:00,84.0,69.1,30.13,NE,53,0.0,0.0,61,0.00,CLR,FEW,0.01,WeatherDisplay:10.37,2013-09-05 21:19:00,
2013-09-05 16:24:00,84.1,67.2,30.13,NW,308,0.0,0.0,57,0.00,CLR,FEW,0.01,WeatherDisplay:10.37,2013-09-05 21:24:00,
2013-09-05 16:29:00,84.3,67.4,30.13,ENE,59,0.0,0.0,57,0.00,CLR,FEW,0.01,WeatherDisplay:10.37,2013-09-05 21:29:00,
2013-09-05 16:34:00,84.3,69.4,30.12,NNW,332,0.0,0.0,61,0.00,CLR,FEW,0.01,WeatherDisplay:10.37,2013-09-05 21:34:00,
2013-09-05 16:39:00,84.4,69.0,30.12,NE,51,0.0,0.0,60,0.00,CLR,FEW,0.01,WeatherDisplay:10.37,2013-09-05 21:39:00,
2013-09-05 16:44:00,84.4,69.0,30.12,NE,36,0.0,0.0,60,0.00,CLR,FEW,0.01,WeatherDisplay:10.37,2013-09-05 21:44:00,
2013-09-05 16:49:00,84.3,67.4,30.12,NE,55,0.0,0.0,57,0.00,CLR,FEW,0.01,WeatherDisplay:10.37,2013-09-05 21:49:00,
2013-09-05 16:54:00,84.3,67.9,30.12,East,101,0.0,0.0,58,0.00,CLR,FEW,0.01,WeatherDisplay:10.37,2013-09-05 21:54:00,
2013-09-05 16:59:00,84.1,69.2,30.12,South,190,0.0,0.0,61,0.00,CLR,FEW,0.01,WeatherDisplay:10.37,2013-09-05 21:59:00,
2013-09-05 17:04:00,84.1,69.2,30.12,ENE,75,0.0,0.0,61,0.00,CLR,FEW,0.01,WeatherDisplay:10.37,2013-09-05 22:04:00,
2013-09-05 17:09:00,84.1,67.7,30.12,ENE,69,0.0,0.0,58,0.00,CLR,FEW,0.01,WeatherDisplay:10.37,2013-09-05 22:09:00,
2013-09-05 17:14:00,83.7,69.8,30.12,NE,49,0.0,0.0,63,0.00,CLR,FEW,0.01,WeatherDisplay:10.37,2013-09-05 22:14:00,
2013-09-05 17:19:00,83.3,68.9,30.12,NE,52,0.0,0.0,62,0.00,CLR,FEW,0.01,WeatherDisplay:10.37,2013-09-05 22:19:00,
2013-09-05 17:24:00,82.8,67.5,30.12,NNW,348,0.0,0.0,60,0.00,CLR,FEW,0.01,WeatherDisplay:10.37,2013-09-05 22:24:00,
2013-09-05 17:30:00,82.3,68.0,30.12,NE,36,0.0,0.0,62,0.00,CLR,FEW,0.01,WeatherDisplay:10.37,2013-09-05 22:30:00,
2013-09-05 17:35:00,82.0,69.1,30.12,NE,48,0.0,0.0,65,0.00,CLR,FEW,0.01,WeatherDisplay:10.37,2013-09-05 22:35:00,
2013-09-05 17:40:00,81.6,69.1,30.11,NE,48,0.0,0.0,66,0.00,CLR,FEW,0.01,WeatherDisplay:10.37,2013-09-05 22:40:00,
2013-09-05 17:45:00,81.2,68.3,30.11,North,350,0.0,0.0,65,0.00,CLR,FEW,0.01,WeatherDisplay:10.37,2013-09-05 22:45:00,
2013-09-05 17:50:00,80.9,69.8,30.11,North,350,0.0,0.0,69,0.00,CLR,FEW,0.01,WeatherDisplay:10.37,2013-09-05 22:50:00,
2013-09-05 17:55:00,80.3,69.6,30.11,North,350,0.0,0.0,70,0.00,CLR,FEW,0.01,WeatherDisplay:10.37,2013-09-05 22:55:00,
2013-09-05 18:00:00,79.7,70.3,30.11,North,350,0.0,0.0,73,0.00,CLR,FEW,0.01,WeatherDisplay:10.37,2013-09-05 23:00:00,
2013-09-05 18:05:00,79.0,70.4,30.11,North,350,0.0,0.0,75,0.00,CLR,FEW,0.01,WeatherDisplay:10.37,2013-09-05 23:05:00,
2013-09-05 18:10:00,78.4,70.2,30.11,North,350,0.0,0.0,76,0.00,CLR,FEW,0.01,WeatherDisplay:10.37,2013-09-05 23:10:00,
2013-09-05 18:15:00,77.9,70.1,30.11,North,350,0.0,0.0,77,0.00,CLR,FEW,0.01,WeatherDisplay:10.37,2013-09-05 23:15:00,
2013-09-05 18:20:00,77.5,70.5,30.11,North,350,0.0,0.0,79,0.00,CLR,FEW,0.01,WeatherDisplay:10.37,2013-09-05 23:20:00,
2013-09-05 18:25:00,77.1,70.5,30.11,North,350,0.0,0.0,80,0.00,CLR,FEW,0.01,WeatherDisplay:10.37,2013-09-05 23:25:00,
2013-09-05 18:30:00,76.7,70.4,30.11,North,350,0.0,0.0,81,0.00,CLR,FEW,0.01,WeatherDisplay:10.37,2013-09-05 23:30:00,
2013-09-05 18:35:00,76.4,70.9,30.10,North,350,0.0,0.0,83,0.00,CLR,FEW,0.01,WeatherDisplay:10.37,2013-09-05 23:35:00,
2013-09-05 18:40:00,76.2,70.7,30.10,North,350,0.0,0.0,83,0.00,CLR,FEW,0.01,WeatherDisplay:10.37,2013-09-05 23:40:00,
2013-09-05 18:45:00,75.9,70.7,30.11,North,350,0.0,0.0,84,0.00,CLR,FEW,0.01,WeatherDisplay:10.37,2013-09-05 23:45:00,
2013-09-05 18:50:00,75.6,70.8,30.10,North,350,0.0,0.0,85,0.00,CLR,FEW,0.01,WeatherDisplay:10.37,2013-09-05 23:50:00,
2013-09-05 18:55:00,75.3,70.5,30.10,North,350,0.0,0.0,85,0.00,CLR,FEW,0.01,WeatherDisplay:10.37,2013-09-05 23:55:00,
2013-09-05 19:00:00,75.0,70.5,30.10,North,350,0.0,0.0,86,0.00,CLR,FEW,0.01,WeatherDisplay:10.37,2013-09-06 00:00:00,
2013-09-05 19:05:00,74.5,70.4,30.10,North,350,0.0,0.0,87,0.00,CLR,FEW,0.01,WeatherDisplay:10.37,2013-09-06 00:05:00,
2013-09-05 19:10:00,74.1,70.3,30.11,North,350,0.0,0.0,88,0.00,CLR,FEW,0.01,WeatherDisplay:10.37,2013-09-06 00:10:00,
2013-09-05 19:15:00,73.7,70.3,30.11,North,350,0.0,0.0,89,0.00,CLR,FEW,0.01,WeatherDisplay:10.37,2013-09-06 00:15:00,
2013-09-05 19:20:00,73.4,70.3,30.11,North,350,0.0,0.0,90,0.00,CLR,FEW,0.01,WeatherDisplay:10.37,2013-09-06 00:20:00,
2013-09-05 19:25:00,73.1,70.0,30.11,North,350,0.0,0.0,90,0.00,CLR,FEW,0.01,WeatherDisplay:10.37,2013-09-06 00:25:00,
2013-09-05 19:30:00,72.8,70.0,30.11,North,350,0.0,0.0,91,0.00,CLR,FEW,0.01,WeatherDisplay:10.37,2013-09-06 00:30:00,
2013-09-05 19:35:00,72.4,69.6,30.11,North,350,0.0,0.0,91,0.00,CLR,FEW,0.01,WeatherDisplay:10.37,2013-09-06 00:35:00,
2013-09-05 19:40:00,72.1,69.6,30.11,North,350,0.0,0.0,92,0.00,CLR,FEW,0.01,WeatherDisplay:10.37,2013-09-06 00:40:00,
2013-09-05 19:45:00,71.9,69.4,30.11,North,350,0.0,0.0,92,0.00,CLR,FEW,0.01,WeatherDisplay:10.37,2013-09-06 00:45:00,
2013-09-05 19:50:00,71.6,69.2,30.12,North,350,0.0,0.0,92,0.00,CLR,FEW,0.01,WeatherDisplay:10.37,2013-09-06 00:50:00,
2013-09-05 19:55:00,71.5,69.4,30.12,North,350,0.0,0.0,93,0.00,CLR,FEW,0.01,WeatherDisplay:10.37,2013-09-06 00:55:00,
2013-09-05 20:00:00,71.3,69.2,30.12,North,350,0.0,0.0,93,0.00,CLR,FEW,0.01,WeatherDisplay:10.37,2013-09-06 01:00:00,
2013-09-05 20:05:00,71.1,69.0,30.12,North,350,0.0,0.0,93,0.00,CLR,FEW,0.01,WeatherDisplay:10.37,2013-09-06 01:05:00,
2013-09-05 20:10:00,70.9,68.8,30.12,North,350,0.0,0.0,93,0.00,CLR,FEW,0.01,WeatherDisplay:10.37,2013-09-06 01:10:00,
2013-09-05 20:15:00,70.8,68.7,30.12,North,350,0.0,0.0,93,0.00,CLR,FEW,0.01,WeatherDisplay:10.37,2013-09-06 01:15:00,
2013-09-05 20:20:00,70.7,68.6,30.12,North,350,0.0,0.0,93,0.00,CLR,FEW,0.01,WeatherDisplay:10.37,2013-09-06 01:20:00,
2013-09-05 20:25:00,70.7,68.6,30.12,North,350,0.0,0.0,93,0.00,CLR,FEW,0.01,WeatherDisplay:10.37,2013-09-06 01:25:00,
2013-09-05 20:30:00,70.4,68.3,30.12,North,350,0.0,0.0,93,0.00,CLR,FEW,0.01,WeatherDisplay:10.37,2013-09-06 01:30:00,
2013-09-05 20:35:00,70.2,68.4,30.13,North,350,0.0,0.0,94,0.00,CLR,FEW,0.01,WeatherDisplay:10.37,2013-09-06 01:35:00,
2013-09-05 20:40:00,69.9,68.1,30.13,North,350,0.0,0.0,94,0.00,CLR,FEW,0.01,WeatherDisplay:10.37,2013-09-06 01:40:00,
2013-09-05 20:45:00,69.8,68.0,30.13,North,350,0.0,0.0,94,0.00,CLR,FEW,0.01,WeatherDisplay:10.37,2013-09-06 01:45:00,
2013-09-05 20:50:00,69.8,68.0,30.13,North,350,0.0,0.0,94,0.00,CLR,FEW,0.01,WeatherDisplay:10.37,2013-09-06 01:50:00,
2013-09-05 20:55:00,69.7,68.2,30.13,North,350,0.0,0.0,95,0.00,CLR,FEW,0.01,WeatherDisplay:10.37,2013-09-06 01:55:00,
2013-09-05 21:00:00,69.6,68.1,30.13,North,350,0.0,0.0,95,0.00,CLR,FEW,0.01,WeatherDisplay:10.37,2013-09-06 02:00:00,
2013-09-05 21:05:00,69.5,68.0,30.14,North,350,0.0,0.0,95,0.00,CLR,FEW,0.01,WeatherDisplay:10.37,2013-09-06 02:05:00,
2013-09-05 21:10:00,69.3,67.8,30.14,North,350,0.0,0.0,95,0.00,CLR,FEW,0.01,WeatherDisplay:10.37,2013-09-06 02:10:00,
2013-09-05 21:15:00,69.1,67.6,30.13,North,350,0.0,0.0,95,0.00,CLR,FEW,0.01,WeatherDisplay:10.37,2013-09-06 02:15:00,
2013-09-05 21:20:00,69.0,67.5,30.13,North,350,0.0,0.0,95,0.00,CLR,FEW,0.01,WeatherDisplay:10.37,2013-09-06 02:20:00,
2013-09-05 21:25:00,68.9,67.4,30.13,North,350,0.0,0.0,95,0.00,CLR,FEW,0.01,WeatherDisplay:10.37,2013-09-06 02:25:00,
2013-09-05 21:30:00,68.9,67.4,30.14,North,350,0.0,0.0,95,0.00,CLR,FEW,0.01,WeatherDisplay:10.37,2013-09-06 02:30:00,
2013-09-05 21:35:00,68.9,67.4,30.14,North,350,0.0,0.0,95,0.00,CLR,FEW,0.01,WeatherDisplay:10.37,2013-09-06 02:35:00,
2013-09-05 21:40:00,68.7,67.2,30.14,North,350,0.0,0.0,95,0.00,CLR,FEW,0.01,WeatherDisplay:10.37,2013-09-06 02:40:00,
2013-09-05 21:45:00,68.5,67.0,30.14,North,350,0.0,0.0,95,0.00,CLR,FEW,0.01,WeatherDisplay:10.37,2013-09-06 02:45:00,
2013-09-05 21:50:00,68.3,66.8,30.14,North,350,0.0,0.0,95,0.00,CLR,FEW,0.01,WeatherDisplay:10.37,2013-09-06 02:50:00,
2013-09-05 21:55:00,68.1,66.6,30.14,North,350,0.0,0.0,95,0.00,CLR,FEW,0.01,WeatherDisplay:10.37,2013-09-06 02:55:00,
2013-09-05 22:00:00,67.9,66.7,30.14,North,350,0.0,0.0,96,0.00,CLR,FEW,0.01,WeatherDisplay:10.37,2013-09-06 03:00:00,
2013-09-05 22:05:00,67.8,66.6,30.14,North,350,0.0,0.0,96,0.00,,FEW,0.01,WeatherDisplay:10.37,2013-09-06 03:05:00,
2013-09-05 22:10:00,67.7,66.5,30.14,North,350,0.0,0.0,96,0.00,,FEW,0.01,WeatherDisplay:10.37,2013-09-06 03:10:00,
2013-09-05 22:15:00,67.7,66.5,30.14,North,350,0.0,0.0,96,0.00,,FEW,0.01,WeatherDisplay:10.37,2013-09-06 03:15:00,
2013-09-05 22:21:00,67.6,66.4,30.15,North,350,0.0,0.0,96,0.00,CLR,FEW,0.01,WeatherDisplay:10.37,2013-09-06 03:21:00,
2013-09-05 22:26:00,67.5,66.3,30.15,North,350,0.0,0.0,96,0.00,CLR,FEW,0.01,WeatherDisplay:10.37,2013-09-06 03:26:00,
2013-09-05 22:31:00,67.5,66.3,30.15,North,350,0.0,0.0,96,0.00,CLR,FEW,0.01,WeatherDisplay:10.37,2013-09-06 03:31:00,
2013-09-05 22:36:00,67.5,66.3,30.15,North,350,0.0,0.0,96,0.00,CLR,FEW,0.01,WeatherDisplay:10.37,2013-09-06 03:36:00,
2013-09-05 22:41:00,67.4,66.2,30.14,North,350,0.0,0.0,96,0.00,CLR,FEW,0.01,WeatherDisplay:10.37,2013-09-06 03:41:00,
2013-09-05 22:46:00,67.3,66.1,30.14,North,350,0.0,0.0,96,0.00,CLR,FEW,0.01,WeatherDisplay:10.37,2013-09-06 03:46:00,
2013-09-05 22:51:00,67.3,66.1,30.15,North,350,0.0,0.0,96,0.00,CLR,FEW,0.01,WeatherDisplay:10.37,2013-09-06 03:51:00,
2013-09-05 22:56:00,67.2,66.0,30.15,North,350,0.0,0.0,96,0.00,CLR,FEW,0.01,WeatherDisplay:10.37,2013-09-06 03:56:00,
2013-09-05 23:01:00,67.2,66.0,30.15,North,350,0.0,0.0,96,0.00,CLR,FEW,0.01,WeatherDisplay:10.37,2013-09-06 04:01:00,
2013-09-05 23:02:00,67.2,66.0,30.15,North,350,0.0,0.0,96,0.00,CLR,FEW,0.01,WeatherDisplay:10.37,2013-09-06 04:02:00,
2013-09-05 23:07:00,67.1,65.9,30.15,North,350,0.0,0.0,96,0.00,CLR,FEW,0.01,WeatherDisplay:10.37,2013-09-06 04:07:00,
2013-09-05 23:12:00,67.1,65.9,30.15,North,350,0.0,0.0,96,0.00,CLR,FEW,0.01,WeatherDisplay:10.37,2013-09-06 04:12:00,
2013-09-05 23:17:00,67.0,65.8,30.15,North,350,0.0,0.0,96,0.00,CLR,FEW,0.01,WeatherDisplay:10.37,2013-09-06 04:17:00,
2013-09-05 23:22:00,66.9,65.7,30.15,North,350,0.0,0.0,96,0.00,CLR,FEW,0.01,WeatherDisplay:10.37,2013-09-06 04:22:00,
2013-09-05 23:27:00,66.8,65.6,30.15,North,350,0.0,0.0,96,0.00,CLR,FEW,0.01,WeatherDisplay:10.37,2013-09-06 04:27:00,
2013-09-05 23:32:00,66.7,65.5,30.15,North,350,0.0,0.0,96,0.00,CLR,FEW,0.01,WeatherDisplay:10.37,2013-09-06 04:32:00,
2013-09-05 23:37:00,66.7,65.8,30.15,North,350,0.0,0.0,97,0.00,CLR,FEW,0.01,WeatherDisplay:10.37,2013-09-06 04:37:00,
2013-09-05 23:42:00,66.7,65.8,30.15,North,350,0.0,0.0,97,0.00,CLR,FEW,0.01,WeatherDisplay:10.37,2013-09-06 04:42:00,
2013-09-05 23:47:00,66.7,65.8,30.15,North,350,0.0,0.0,97,0.00,CLR,FEW,0.01,WeatherDisplay:10.37,2013-09-06 04:47:00,
2013-09-05 23:52:00,66.7,65.8,30.14,North,350,0.0,0.0,97,0.00,CLR,FEW,0.01,WeatherDisplay:10.37,2013-09-06 04:52:00,
2013-09-05 23:57:00,66.6,65.7,30.14,North,350,0.0,0.0,97,0.00,CLR,FEW,0.01,WeatherDisplay:10.37,2013-09-06 04:57:00,